Location: Tierz
(42.1336°N, 0.3549°W)
Time: 15:07:49
(UTC+00:00)

SL-08 R/B - Pass Details

Date: 29 October 2020
Orbit: 946 x 994 km, 83.0° (Epoch: 25 November)

Event Time Altitude Azimuth Distance (km) Brightness Sun altitude
Rises 18:01:53 0° 354° (N) 3,654 7.5 -12.3°
Reaches altitude 10° 18:04:25 10° 356° (N) 2,697 6.8 -12.7°
Maximum altitude 18:10:34 73° 81° (E) 994 4.4 -13.9°
Drops below altitude 10° 18:16:38 10° 166° (SSE) 2,659 6.7 -15.0°
Sets 18:19:07 0° 169° (SSE) 3,599 7.4 -15.4°
